Tracking 25193 objects as of 17-Jan-2022
HD Live streaming from Space Station
objects crossing your sky now

OPS 3151

Track OPS 3151 now!
OPS 3151 is classified as:


NORAD ID: 9803
Int'l Code: 1977-007A
Perigee: 36,223.3 km
Apogee: 36,937.2 km
Inclination: 8.8 °
Period: 1,476.5 minutes
Semi major axis: 42951 km
RCS: Unknown
Launch date: February 6, 1977
Source: United States (US)
Launch site: AIR FORCE EASTERN TEST RANGE (AFETR)
aabbcc
Your satellite tracking list
Your tracking list is empty




NASA's NSSDC Master Catalog

Two Line Element Set (TLE):
1 09803U 77007A   22016.68254469 -.00000108  00000-0  00000-0 0  9996
2 09803   8.7932 300.4796 0083109 358.9084 192.5824  0.97530279  8920
Source of the keplerian elements: McCants